Portsmouth Weather Center

Moon Phase Calendar



Online Cameras

 


      

Current Conditions in New Castle
3/3/2024 2:05:13 PM

54°F
Feels Like 53
Clouds
Humidity
83%
Pressure
30.12"
Wind
11.5 mph (N)
Dew Point
49°F
UV Index
1/10 (Low)
Visibility
6 mi

Hourly Forecast

Date & Time Sun, Mar 3
2:00 PM
Sun, Mar 3
3:00 PM
Sun, Mar 3
4:00 PM
Sun, Mar 3
5:00 PM
Sun, Mar 3
6:00 PM
Sun, Mar 3
7:00 PM
Sun, Mar 3
8:00 PM
Sun, Mar 3
9:00 PM
Sun, Mar 3
10:00 PM
Sun, Mar 3
11:00 PM
Mon, Mar 4
12:00 AM
Mon, Mar 4
1:00 AM
Mon, Mar 4
2:00 AM
Mon, Mar 4
3:00 AM
Mon, Mar 4
4:00 AM
Mon, Mar 4
5:00 AM
Mon, Mar 4
6:00 AM
Mon, Mar 4
7:00 AM
Mon, Mar 4
8:00 AM
Mon, Mar 4
9:00 AM
Mon, Mar 4
10:00 AM
Mon, Mar 4
11:00 AM
Mon, Mar 4
12:00 PM
Mon, Mar 4
1:00 PM
Mon, Mar 4
2:00 PM
Mon, Mar 4
3:00 PM
Mon, Mar 4
4:00 PM
Mon, Mar 4
5:00 PM
Mon, Mar 4
6:00 PM
Mon, Mar 4
7:00 PM
Mon, Mar 4
8:00 PM
Mon, Mar 4
9:00 PM
Mon, Mar 4
10:00 PM
Mon, Mar 4
11:00 PM
Tue, Mar 5
12:00 AM
Tue, Mar 5
1:00 AM
Tue, Mar 5
2:00 AM
Tue, Mar 5
3:00 AM
Tue, Mar 5
4:00 AM
Tue, Mar 5
5:00 AM
Tue, Mar 5
6:00 AM
Tue, Mar 5
7:00 AM
Tue, Mar 5
8:00 AM
Tue, Mar 5
9:00 AM
Tue, Mar 5
10:00 AM
Tue, Mar 5
11:00 AM
Tue, Mar 5
12:00 PM
Tue, Mar 5
1:00 PM
Condition
Clouds

Clouds

Clouds

Clouds

Clouds

Clouds

Clouds

Clouds

Clouds

Clouds

Clouds

Clouds

Clouds

Clouds

Clouds

Clouds

Clouds

Clouds

Clouds

Clouds

Clouds

Clouds

Clouds

Clouds

Clouds

Clouds

Clouds

Clouds

Clouds

Clouds

Clouds

Rain

Clouds

Clouds

Clouds

Clouds

Clouds

Clouds

Clouds

Clouds

Clouds

Clouds

Clouds

Clouds

Clouds

Clouds

Rain

Rain
Temperature 54°F52°F51°F49°F48°F46°F46°F45°F45°F45°F44°F43°F42°F41°F40°F40°F39°F39°F41°F42°F41°F41°F41°F41°F41°F40°F39°F39°F39°F39°F39°F39°F39°F39°F39°F39°F39°F39°F39°F39°F39°F39°F40°F40°F40°F40°F40°F40°F
Feels Like 53°F51°F50°F46°F44°F42°F42°F42°F42°F41°F40°F39°F37°F36°F35°F34°F33°F34°F35°F36°F35°F35°F35°F35°F34°F34°F32°F32°F32°F33°F34°F34°F34°F34°F35°F34°F34°F35°F35°F35°F35°F35°F35°F35°F36°F36°F37°F36°F
Cloudiness 100%100%100%100%100%100%100%100%100%100%97%91%39%36%36%34%35%37%82%88%92%94%95%96%100%100%100%100%100%100%100%100%100%100%100%100%100%100%100%100%100%100%100%100%100%100%100%100%
Visibility 6 mi6 mi6 mi6 mi6 mi6 mi6 mi6 mi6 mi6 mi6 mi6 mi6 mi6 mi6 mi6 mi6 mi6 mi6 mi6 mi6 mi6 mi6 mi6 mi6 mi6 mi6 mi6 mi6 mi6 mi6 mi6 mi6 mi6 mi6 mi6 mi6 mi6 mi6 mi6 mi6 mi6 mi6 mi6 mi6 mi6 mi6 mi6 mi
Precipitation 0%0%0%0%0%0%3%0%0%0%0%0%0%0%0%0%0%0%0%0%0%0%0%0%0%3%11%15%19%23%29%29%25%17%17%17%13%1%0%0%0%0%0%0%1%12%25%30%
Humidity 83%85%86%88%90%92%93%93%93%93%93%94%94%94%94%94%95%94%89%86%87%88%88%90%92%91%88%90%93%95%96%96%95%95%95%95%96%96%96%96%96%96%95%95%95%96%97%98%
Dew Point 49°F48°F47°F46°F45°F44°F44°F43°F43°F43°F42°F41°F40°F39°F39°F38°F38°F38°F38°F38°F38°F38°F38°F38°F38°F38°F36°F36°F37°F37°F38°F38°F38°F37°F37°F37°F37°F38°F38°F38°F38°F38°F38°F38°F39°F39°F39°F39°F
Pressure 30.12"30.12"30.12"30.15"30.18"30.21"30.24"30.27"30.27"30.3"30.3"30.33"30.33"30.36"30.36"30.39"30.42"30.45"30.45"30.47"30.47"30.47"30.5"30.5"30.5"30.47"30.47"30.5"30.5"30.5"30.47"30.47"30.47"30.47"30.45"30.45"30.42"30.42"30.39"30.39"30.39"30.39"30.39"30.36"30.36"30.33"30.3"30.27"
Wind Speed 10.4 mph10 mph9.7 mph9.3 mph9.1 mph8.4 mph7.4 mph6.6 mph5.9 mph6.5 mph6.5 mph6.2 mph6.7 mph7.3 mph8.7 mph9.4 mph9.4 mph8.7 mph9.2 mph10.2 mph10.9 mph10 mph10 mph9.9 mph10.2 mph10.7 mph11.3 mph10.1 mph9.3 mph7.9 mph6.8 mph6.6 mph6.4 mph6.2 mph5.7 mph5.7 mph5.8 mph5.3 mph5.3 mph5.4 mph5.3 mph5.2 mph6.1 mph7 mph6.4 mph5.8 mph4.7 mph6.1 mph
Wind
Direction
347°
NNW
349°
N
355°
N
357°
N
359°
N

N

N

N
355°
N
356°
N

N

N
11°
N
16°
NNE
20°
NNE
25°
NNE
23°
NNE
22°
NNE
29°
NNE
45°
NE
50°
NE
56°
NE
54°
NE
59°
ENE
61°
ENE
60°
ENE
63°
ENE
64°
ENE
68°
ENE
75°
ENE
82°
E
84°
E
91°
E
89°
E
90°
E
91°
E
87°
E
94°
E
95°
E
96°
E
97°
E
100°
E
95°
E
85°
E
99°
E
100°
E
95°
E
77°
ENE

Daily Forecast

Date High Low Precip. Humidity
Today
Mar 3

Rain
54 °F
41 °F
100%
90%
Monday
Mar 4

Rain
44 °F
39 °F
29%
88%
Tuesday
Mar 5

Rain
41 °F
39 °F
100%
96%
Wednesday
Mar 6

Rain
54 °F
40 °F
92%
89%
Thursday
Mar 7

Rain
48 °F
35 °F
100%
86%
Friday
Mar 8

Clouds
41 °F
31 °F
0%
48%
Saturday
Mar 9

Clouds
36 °F
31 °F
0%
62%
Sunday
Mar 10

Snow
35 °F
34 °F
100%
100%
Monday
Mar 11

Snow
38 °F
33 °F
100%
99%
Tuesday
Mar 12

Clear
40 °F
27 °F
0%
91%
Wednesday
Mar 13

Clouds
41 °F
31 °F
0%
95%
Thursday
Mar 14

Rain
55 °F
35 °F
45%
97%
Friday
Mar 15

Clouds
57 °F
41 °F
0%
68%
Saturday
Mar 16

Clouds
55 °F
44 °F
17%
96%
Sunday
Mar 17

Rain
54 °F
41 °F
100%
85%
Monday
Mar 18

Clouds
44 °F
36 °F
0%
50%

Temperature 8-14 Day Outlook



Precipitation 8-14 Day Outlook




Quick Links
Portsmouth News
Portsmouth Photos
Portsmouth Videos




About Us
Contact Us
Site Map
Search Site
Advertise With Us
   
Portsmouth.USCoast.info
THE PORTSMOUTH WEBSITE

Copyright 2024, Coastal Town
Privacy    |    Legal